Regional Weather Roundup
Issued by NWS

Home | Current Version | Previous Version | Graphics & Text | Print | Product List | Glossary On
Versions: 1 2 3 4 5 6 7 8 9 10 11 12 13 14 15 16 17 18 19 20 21 22 23 24 25 26 27 28 29 30 31 32 33 34 35 36 37 38 39 40 41 42 43 44 45 46 47 48 49 50
000
ASUS45 KABQ 250301
RWRNM
WEATHER ROUNDUP FOR NEW MEXICO
NATIONAL WEATHER SERVICE ALBUQUERQUE NM
900 PM MDT THU JUL 24 2014

NOTE: "FAIR" MEANS FEW OR NO CLOUDS BELOW 12,000 FEET AGL WITH NO
       SIGNIFICANT WEATHER OR OBSTRUCTIONS TO VISION.

      THIS PRODUCT IS RELEASED AS TWO VERSIONS.  ONE VERSION NEAR
      THE TOP OF THE HOUR CONTAINING PRELIMINARY DATA FROM ALBUQUERQUE
      AND OTHER STATIONS.  A FINAL VERSION WITH ADDITIONAL DATA IS
      ISSUED ABOUT 10 MINUTES AFTER THE HOUR.

NMZ501-503-504-510>518-250400-
NORTHWEST PLATEAU/NORTHCENTRAL MOUNTAINS

CITY           SKY/WX    TMP DP  RH WIND       PRES   REMARKS
FARMINGTON     CLEAR     80  50  34 N8        30.15R
LOS ALAMOS     CLEAR     75  38  26 SW9       30.32S
SANTA FE       CLEAR     75  42  30 SW6       30.24R
TAOS           PTCLDY    75  37  25 SW9       30.30R
ANGEL FIRE     FAIR      67  42  40 CALM      30.41R

$$
NMZ402-403-502-505>509-250400-
WESTCENTRAL MOUNTAINS/SOUTHWEST MOUNTAINS

CITY           SKY/WX    TMP DP  RH WIND       PRES   REMARKS
GALLUP         MOCLDY    79  37  22 S6        30.23R
GRANTS         PTCLDY    77  41  28 S7        30.26R

$$
NMZ407-409-411-412-250400-
SOUTHERN DESERTS

CITY           SKY/WX    TMP DP  RH WIND       PRES   REMARKS
LORDSBURG      FAIR      82  41  23 SE5       30.08R
DEMING         PTCLDY    86  46  24 SW5       30.09R
LAS CRUCES     CLEAR     86  40  20 S5        30.12R
HOLLOMAN AFB   MOCLDY    87  42  20 S8        30.07R
T OR C         CLEAR     87  39  18 SW7       30.13R

$$
NMZ519>523-250400-
CENTRAL VALLEYS/CENTRAL HIGHLANDS

CITY           SKY/WX    TMP DP  RH WIND       PRES   REMARKS
ALBUQUERQUE    PTCLDY    86  41  20 S9        30.17R
DOUBLE EAGLE   CLEAR     79  41  25 S8        30.21R
CLINES CORNERS PTCLDY    70  40  33 S9        30.31R
BELEN          FAIR      80  43  27 S7        30.16R
SOCORRO        NOT AVBL

$$
NMZ524>526-539-540-250400-
SOUTHCENTRAL MOUNTAINS

CITY           SKY/WX    TMP DP  RH WIND       PRES   REMARKS
RUIDOSO        NOT AVBL

$$
NMZ527>531-250400-
NORTHEAST HIGHLANDS/NORTHEAST PLAINS

CITY           SKY/WX    TMP DP  RH WIND       PRES   REMARKS
LAS VEGAS      CLEAR     71  42  35 S13       30.28R
RATON          NOT AVBL
CLAYTON        CLEAR     83  42  23 S16       30.10R

$$
NMZ532>537-250400-
EASTCENTRAL PLAINS

CITY           SKY/WX    TMP DP  RH WIND       PRES   REMARKS
TUCUMCARI      CLEAR     85  47  26 S12       30.06R
CANNON AFB     CLEAR     78  56  46 S8        30.13R
CLOVIS AIRPORT NOT AVBL

$$
NMZ028-029-538-250400-
SOUTHEAST PLAINS

CITY           SKY/WX    TMP DP  RH WIND       PRES   REMARKS
ROSWELL        CLEAR     86  47  25 S7        30.06R
ARTESIA        CLEAR     88  46  23 S5        30.05R
CARLSBAD       PTCLDY    90  43  19 SE7       30.03R
HOBBS          CLEAR     86  46  25 E8        30.09R


$$



USA.gov is the U.S. government's official web portal to all federal, state and local government web resources and services.